Chandler, OK

12:50 PM CST on February 18, 2018 (GMT -0600)
Chandler Municipal

Weather History for KCQB - January, 2014

Change the Weather History Date:

Friday, January 17, 2014

  Actual Average (KCUH) Record (KCUH)
Temperature  
Mean Temperature 40 °F -  
Max Temperature 50 °F 46 °F 72 °F (1952)
Min Temperature 30 °F 26 °F 0 °F (1978)
Degree Days  
Heating Degree Days 25    
Moisture  
Dew Point 21 °F    
Average Humidity 49    
Maximum Humidity 69    
Minimum Humidity 30    
Precipitation  
Precipitation 0.00 in - - ()
Sea Level Pressure  
Sea Level Pressure 30.23 in    
Wind  
Wind Speed 11 mph (NW)    
Max Wind Speed 17 mph    
Max Gust Speed 28 mph    
Visibility 10 miles    
Events      
Averages and records for this station are not official NWS values.
T = Trace of Precipitation, MM = Missing Value Source: NWS Daily Summary

Daily Weather History Graph

Daily Weather History Graph

Search for Another Location

Airport or City:

Trip Planner

Search our weather history database for the weather conditions in past years. The results will help you decide how hot, cold, wet, or windy it might be!

Date:

Astronomy

Jan. 17, 2014 Rise Set
Actual Time 7:35 AM CST 5:39 PM CST
Civil Twilight 7:08 AM CST 6:07 PM CST
Nautical Twilight 6:36 AM CST 6:38 PM CST
Astronomical Twilight 6:06 AM CST 7:08 PM CST
Moon 7:21 PM CST (1/17) 8:08 AM CST (1/17)
Length of Visible Light 10h 58m
Length of Day
10h 03m
Full, 98% of the Moon is Illuminated
Jan 17
Full
Jan 23
Last Quarter
Jan 30
New
Feb 6
First Quarter
Feb 14
Full

Hourly Weather History & Observations

Time (CST) Temp. Windchill Dew Point Humidity Pressure Visibility Wind Dir Wind Speed Gust Speed Precip Events Conditions
12:15 AM 42.8 °F 36.2 °F 21.2 °F 42% 30.20 in 10.0 mi NNW 12.7 mph 18.4 mph N/A   Clear
12:35 AM 41.0 °F 32.5 °F 21.2 °F 45% 30.21 in 10.0 mi North 17.3 mph 27.6 mph N/A   Clear
12:55 AM 41.0 °F 33.9 °F 19.4 °F 42% 30.22 in 10.0 mi North 12.7 mph 21.9 mph N/A   Clear
1:15 AM 39.2 °F 30.8 °F 19.4 °F 45% 30.22 in 10.0 mi North 15.0 mph 20.7 mph N/A   Clear
1:35 AM 37.4 °F 28.5 °F 19.4 °F 48% 30.23 in 10.0 mi North 15.0 mph 19.6 mph N/A   Clear
1:55 AM 37.4 °F 28.2 °F 21.2 °F 52% 30.24 in 10.0 mi North 16.1 mph 19.6 mph N/A   Clear
2:15 AM 37.4 °F 28.9 °F 21.2 °F 52% 30.25 in 10.0 mi NNW 13.8 mph 23.0 mph N/A   Clear
2:35 AM 37.4 °F 28.2 °F 19.4 °F 48% 30.25 in 10.0 mi NNW 16.1 mph 23.0 mph N/A   Clear
2:55 AM 35.6 °F 26.2 °F 19.4 °F 52% 30.26 in 10.0 mi NNW 15.0 mph 19.6 mph N/A   Clear
3:15 AM 35.6 °F 26.6 °F 21.2 °F 56% 30.26 in 10.0 mi NNW 13.8 mph 24.2 mph N/A   Clear
3:35 AM 35.6 °F 27.5 °F 21.2 °F 56% 30.26 in 10.0 mi NNW 11.5 mph 20.7 mph N/A   Clear
3:55 AM 35.6 °F 27.5 °F 21.2 °F 56% 30.26 in 10.0 mi NNW 11.5 mph - N/A   Clear
4:15 AM 33.8 °F 25.8 °F 21.2 °F 60% 30.27 in 10.0 mi NW 10.4 mph - N/A   Clear
4:35 AM 33.8 °F 25.8 °F 21.2 °F 60% 30.27 in 10.0 mi NW 10.4 mph - N/A   Clear
4:55 AM 32.0 °F 24.8 °F 21.2 °F 64% 30.27 in 10.0 mi NW 8.1 mph - N/A   Clear
5:15 AM 32.0 °F 24.2 °F 21.2 °F 64% 30.27 in 10.0 mi NW 9.2 mph - N/A   Clear
5:35 AM 32.0 °F 23.6 °F 21.2 °F 64% 30.27 in 10.0 mi NW 10.4 mph - N/A   Clear
5:55 AM 32.0 °F 22.5 °F 21.2 °F 64% 30.27 in 10.0 mi NW 12.7 mph 18.4 mph N/A   Clear
6:15 AM 32.0 °F 22.5 °F 19.4 °F 60% 30.27 in 10.0 mi NNW 12.7 mph - N/A   Clear
6:35 AM 32.0 °F 25.6 °F 19.4 °F 60% 30.27 in 10.0 mi NW 6.9 mph - N/A   Clear
6:55 AM 30.2 °F 23.4 °F 19.4 °F 64% 30.28 in 10.0 mi NW 6.9 mph - N/A   Clear
7:15 AM 32.0 °F 24.8 °F 21.2 °F 64% 30.29 in 10.0 mi NNW 8.1 mph - N/A   Clear
7:35 AM 32.0 °F 24.8 °F 21.2 °F 64% 30.29 in 10.0 mi NW 8.1 mph - N/A   Clear
7:55 AM 30.2 °F 24.3 °F 21.2 °F 69% 30.29 in 10.0 mi WNW 5.8 mph - N/A   Clear
8:15 AM 30.2 °F 24.3 °F 21.2 °F 69% 30.30 in 10.0 mi WNW 5.8 mph - N/A   Clear
8:35 AM 30.2 °F 25.4 °F 21.2 °F 69% 30.30 in 10.0 mi West 4.6 mph - N/A   Clear
8:55 AM 32.0 °F 25.6 °F 21.2 °F 64% 30.31 in 10.0 mi NW 6.9 mph - N/A   Clear
9:15 AM 33.8 °F 26.4 °F 21.2 °F 60% 30.31 in 10.0 mi NNW 9.2 mph - N/A   Clear
9:35 AM 35.6 °F 29.2 °F 23.0 °F 60% 30.32 in 10.0 mi NW 8.1 mph - N/A   Clear
9:55 AM 37.4 °F 30.8 °F 23.0 °F 56% 30.32 in 10.0 mi NNW 9.2 mph 16.1 mph N/A   Clear
10:15 AM 39.2 °F 30.2 °F 21.2 °F 49% 30.32 in 10.0 mi NNW 17.3 mph 21.9 mph N/A   Clear
10:35 AM 39.2 °F 30.2 °F 23.0 °F 52% 30.32 in 10.0 mi NNW 17.3 mph 21.9 mph N/A   Clear
10:55 AM 41.0 °F 33.1 °F 23.0 °F 49% 30.32 in 10.0 mi NNW 15.0 mph 19.6 mph N/A   Clear
11:15 AM 41.0 °F 34.7 °F 21.2 °F 45% 30.31 in 10.0 mi NNW 10.4 mph 23.0 mph N/A   Clear
11:35 AM 42.8 °F 36.2 °F 23.0 °F 46% 30.30 in 10.0 mi NNW 12.7 mph 20.7 mph N/A   Clear
11:55 AM 42.8 °F 36.6 °F 23.0 °F 46% 30.29 in 10.0 mi NW 11.5 mph 21.9 mph N/A   Clear
12:15 PM 44.6 °F 37.2 °F 23.0 °F 43% 30.29 in 10.0 mi NW 17.3 mph 23.0 mph N/A   Clear
12:35 PM 44.6 °F 37.2 °F 23.0 °F 43% 30.27 in 10.0 mi North 17.3 mph 23.0 mph N/A   Clear
12:55 PM 46.4 °F 41.5 °F 23.0 °F 40% 30.25 in 10.0 mi NNW 10.4 mph - N/A   Clear
1:15 PM 46.4 °F 40.4 °F 23.0 °F 40% 30.24 in 10.0 mi NW 13.8 mph - N/A   Clear
1:35 PM 46.4 °F 41.5 °F 23.0 °F 40% 30.23 in 10.0 mi NW 10.4 mph 21.9 mph N/A   Clear
1:55 PM 48.2 °F - 23.0 °F 37% 30.22 in 10.0 mi NNW 16.1 mph 21.9 mph N/A   Clear
2:15 PM 48.2 °F - 21.2 °F 34% 30.22 in 10.0 mi NNW 16.1 mph 21.9 mph N/A   Clear
2:35 PM 50.0 °F - 21.2 °F 32% 30.22 in 10.0 mi NNW 15.0 mph 23.0 mph N/A   Clear
2:55 PM 50.0 °F - 21.2 °F 32% 30.22 in 10.0 mi NW 12.7 mph 19.6 mph N/A   Clear
3:15 PM 50.0 °F - 19.4 °F 30% 30.21 in 10.0 mi NNW 11.5 mph 17.3 mph N/A   Clear
3:35 PM 50.0 °F - 19.4 °F 30% 30.21 in 10.0 mi North 10.4 mph 16.1 mph N/A   Clear
3:55 PM 50.0 °F - 19.4 °F 30% 30.21 in 10.0 mi NNW 9.2 mph - N/A   Clear
4:15 PM 50.0 °F - 19.4 °F 30% 30.21 in 10.0 mi North 5.8 mph - N/A   Clear
4:35 PM 50.0 °F - 19.4 °F 30% 30.20 in 10.0 mi NNW 5.8 mph - N/A   Clear
4:55 PM 48.2 °F - 19.4 °F 32% 30.20 in 10.0 mi North 4.6 mph - N/A   Clear
5:15 PM 46.4 °F 44.3 °F 19.4 °F 34% 30.20 in 10.0 mi NW 4.6 mph - N/A   Clear
5:35 PM 44.6 °F 43.1 °F 17.6 °F 34% 30.20 in 10.0 mi NW 3.5 mph - N/A   Clear
5:55 PM 42.8 °F - 17.6 °F 36% 30.20 in 10.0 mi Calm Calm - N/A   Clear
6:15 PM 42.8 °F - 17.6 °F 36% 30.19 in 10.0 mi Calm Calm - N/A   Clear
6:35 PM 42.8 °F - 17.6 °F 36% 30.19 in 10.0 mi Calm Calm - N/A   Clear
6:55 PM 42.8 °F 40.1 °F 17.6 °F 36% 30.19 in 10.0 mi WNW 4.6 mph - N/A   Clear
7:15 PM 41.0 °F 38.0 °F 17.6 °F 39% 30.18 in 10.0 mi SSW 4.6 mph - N/A   Clear
7:35 PM 41.0 °F 37.1 °F 17.6 °F 39% 30.17 in 10.0 mi South 5.8 mph - N/A   Clear
7:55 PM 39.2 °F 35.9 °F 17.6 °F 42% 30.17 in 10.0 mi South 4.6 mph - N/A   Clear
8:15 PM 39.2 °F 35.0 °F 17.6 °F 42% 30.16 in 10.0 mi South 5.8 mph - N/A   Clear
8:35 PM 37.4 °F 33.8 °F 17.6 °F 45% 30.15 in 10.0 mi South 4.6 mph - N/A   Clear
8:55 PM 37.4 °F 33.8 °F 19.4 °F 48% 30.14 in 10.0 mi South 4.6 mph - N/A   Clear
9:15 PM 35.6 °F 31.7 °F 19.4 °F 52% 30.14 in 10.0 mi South 4.6 mph - N/A   Clear
9:35 PM 35.6 °F 30.7 °F 21.2 °F 56% 30.13 in 10.0 mi South 5.8 mph - N/A   Clear
9:55 PM 37.4 °F 32.8 °F 21.2 °F 52% 30.12 in 10.0 mi South 5.8 mph - N/A   Clear
10:15 PM 37.4 °F 32.8 °F 21.2 °F 52% 30.12 in 10.0 mi South 5.8 mph - N/A   Clear
10:35 PM 35.6 °F 29.9 °F 21.2 °F 56% 30.12 in 10.0 mi South 6.9 mph - N/A   Clear
10:55 PM 35.6 °F 29.9 °F 21.2 °F 56% 30.11 in 10.0 mi SSW 6.9 mph - N/A   Clear
11:15 PM 35.6 °F 29.2 °F 21.2 °F 56% 30.10 in 10.0 mi SSW 8.1 mph - N/A   Clear
11:35 PM 35.6 °F 28.6 °F 21.2 °F 56% 30.08 in 10.0 mi SSW 9.2 mph - N/A   Clear
11:55 PM 37.4 °F 30.8 °F 21.2 °F 52% 30.08 in 10.0 mi SSW 9.2 mph - N/A   Clear